| time (UTC) | temp F | wind direction | speed knots | gust knots | rain 1hr in | rain 24hr in | rain mn in | humidity % | barometer mb |
| 20260904191009 | 66 | 2 | 2.6 | 8.7 | 0.00 | 0.00 | 0.00 | 67 | 1017.4 |
| 20260904190010 | 66 | 343 | 2.6 | 7.0 | 0.00 | 0.00 | 0.00 | 69 | 1017.7 |
| 20260904185009 | 66 | 0 | 5.2 | 12.2 | 0.00 | 0.00 | 0.00 | 69 | 1017.5 |
| 20260904184009 | 66 | 310 | 1.7 | 10.4 | 0.00 | 0.00 | 0.00 | 71 | 1017.4 |
| 20260904183012 | 66 | 342 | 4.3 | 7.8 | 0.00 | 0.00 | 0.00 | 72 | 1017.5 |
| 20260904182010 | 65 | 12 | 2.6 | 5.2 | 0.00 | 0.00 | 0.00 | 74 | 1017.5 |
| 20260904181010 | 65 | 343 | 0.9 | 8.7 | 0.00 | 0.00 | 0.00 | 76 | 1017.5 |
| 20260904180009 | 65 | 8 | 4.3 | 7.0 | 0.00 | 0.00 | 0.00 | 77 | 1017.4 |
| 20260904175010 | 64 | 280 | 0.0 | 4.3 | 0.00 | 0.00 | 0.00 | 81 | 1017.4 |
| 20260904174009 | 63 | 318 | 0.0 | 5.2 | 0.00 | 0.00 | 0.00 | 82 | 1017.3 |
| 20260904173009 | 63 | 347 | 2.6 | 6.1 | 0.00 | 0.00 | 0.00 | 82 | 1017.3 |
| 20260904171010 | 62 | 274 | 0.9 | 2.6 | 0.00 | 0.00 | 0.00 | 90 | 1017.2 |
| 20260904170010 | 61 | 0 | 1.7 | 6.1 | 0.00 | 0.00 | 0.00 | 92 | 1017.1 |
| 20260904165009 | 60 | 355 | 2.6 | 7.0 | 0.00 | 0.00 | 0.00 | 94 | 1017.1 |
| 20260904164010 | 59 | 349 | 5.2 | 7.8 | 0.00 | 0.00 | 0.00 | 94 | 1017.0 |
| 20260904162010 | 60 | 4 | 2.6 | 7.8 | 0.00 | 0.00 | 0.00 | 92 | 1016.9 |
| 20260904161010 | 61 | 356 | 0.9 | 6.1 | 0.00 | 0.00 | 0.00 | 92 | 1016.7 |
| 20260904160009 | 60 | 357 | 1.7 | 6.1 | 0.00 | 0.00 | 0.00 | 92 | 1016.8 |
| 20260904155010 | 60 | 314 | 0.9 | 5.2 | 0.00 | 0.00 | 0.00 | 92 | 1016.7 |
| 20260904154009 | 60 | 3 | 0.9 | 4.3 | 0.00 | 0.00 | 0.00 | 93 | 1016.7 |
| 20260904153010 | 60 | 1 | 0.0 | 2.6 | 0.00 | 0.00 | 0.00 | 93 | 1016.6 |
| 20260904152010 | 60 | 0 | 0.9 | 6.1 | 0.00 | 0.00 | 0.00 | 93 | 1016.7 |
| 20260904151009 | 60 | 6 | 0.9 | 6.1 | 0.00 | 0.00 | 0.00 | 93 | 1016.6 |
| 20260904150010 | 60 | 329 | 0.0 | 0.0 | 0.00 | 0.00 | 0.00 | 93 | 1016.4 |
| 20260904145010 | 59 | 329 | 0.0 | 0.0 | 0.00 | 0.00 | 0.00 | 93 | 1016.3 |
| 20260904144009 | 59 | 329 | 0.0 | 0.0 | 0.00 | 0.00 | 0.00 | 94 | 1016.2 |
| 20260904143010 | 59 | 329 | 0.0 | 0.0 | 0.00 | 0.00 | 0.00 | 93 | 1016.1 |
| 20260904142009 | 59 | 329 | 0.0 | 0.0 | 0.00 | 0.04 | 0.00 | 93 | 1016.0 |
| 20260904141010 | 59 | 329 | 0.0 | 1.7 | 0.00 | 0.04 | 0.00 | 93 | 1016.0 |
| 20260904140009 | 59 | 322 | 0.0 | 0.0 | 0.00 | 0.04 | 0.00 | 92 | 1015.9 |
| 20260904135010 | 59 | 322 | 0.0 | 0.0 | 0.00 | 0.04 | 0.00 | 91 | 1015.8 |
| 20260904132010 | 60 | 322 | 0.0 | 0.0 | 0.00 | 0.04 | 0.00 | 90 | 1015.6 |
| 20260904131009 | 60 | 322 | 0.0 | 0.0 | 0.00 | 0.04 | 0.00 | 89 | 1015.6 |
| 20260904130010 | 59 | 322 | 0.0 | 1.7 | 0.00 | 0.04 | 0.00 | 89 | 1015.5 |
| 20260904125009 | 60 | 16 | 0.0 | 0.0 | 0.00 | 0.04 | 0.00 | 89 | 1015.3 |
| 20260904124010 | 60 | 16 | 0.0 | 0.0 | 0.00 | 0.04 | 0.00 | 89 | 1015.2 |
| 20260904123009 | 60 | 16 | 0.0 | 0.0 | 0.00 | 0.04 | 0.00 | 89 | 1015.1 |
| 20260904122009 | 60 | 16 | 0.0 | 0.0 | 0.00 | 0.04 | 0.00 | 89 | 1015.1 |
| 20260904121009 | 60 | 16 | 0.0 | 0.0 | 0.00 | 0.04 | 0.00 | 89 | 1015.1 |
| 20260904115009 | 59 | 16 | 0.0 | 0.0 | 0.00 | 0.04 | 0.00 | 90 | 1015.2 |
| 20260904113009 | 59 | 16 | 0.0 | 0.0 | 0.00 | 0.04 | 0.00 | 90 | 1015.2 |
| 20260904112009 | 59 | 16 | 0.0 | 0.0 | 0.00 | 0.04 | 0.00 | 90 | 1015.3 |
| 20260904111009 | 59 | 16 | 0.0 | 0.0 | 0.00 | 0.04 | 0.00 | 90 | 1015.2 |
| 20260904110010 | 59 | 16 | 0.0 | 0.0 | 0.00 | 0.04 | 0.00 | 90 | 1015.2 |
| 20260904105010 | 59 | 16 | 0.0 | 0.0 | 0.00 | 0.04 | 0.00 | 90 | 1015.1 |
| 20260904104010 | 59 | 16 | 0.0 | 0.0 | 0.00 | 0.04 | 0.00 | 89 | 1015.0 |
| 20260904103010 | 59 | 16 | 0.0 | 0.0 | 0.00 | 0.04 | 0.00 | 89 | 1015.0 |
| 20260904102010 | 59 | 16 | 0.0 | 0.0 | 0.00 | 0.04 | 0.00 | 89 | 1015.0 |
| 20260904101010 | 59 | 16 | 0.0 | 0.0 | 0.00 | 0.04 | 0.00 | 88 | 1014.9 |
| 20260904100009 | 59 | 16 | 0.0 | 0.0 | 0.00 | 0.04 | 0.00 | 87 | 1014.8 |
| 20260904094009 | 60 | 16 | 0.0 | 0.0 | 0.00 | 0.04 | 0.00 | 86 | 1014.7 |
| 20260904092010 | 61 | 16 | 0.0 | 0.0 | 0.00 | 0.04 | 0.00 | 84 | 1014.9 |
| 20260904091011 | 61 | 16 | 0.0 | 0.0 | 0.00 | 0.04 | 0.00 | 83 | 1014.9 |
| 20260904090009 | 61 | 16 | 0.0 | 0.0 | 0.00 | 0.04 | 0.00 | 82 | 1014.8 |
| 20260904085010 | 62 | 16 | 0.0 | 4.3 | 0.00 | 0.04 | 0.00 | 80 | 1014.8 |
| 20260904084011 | 62 | 297 | 0.9 | 5.2 | 0.00 | 0.04 | 0.00 | 77 | 1014.8 |
| 20260904082010 | 62 | 8 | 0.0 | 1.7 | 0.00 | 0.04 | 0.00 | 69 | 1014.8 |
| 20260904081010 | 62 | 353 | 0.0 | 0.0 | 0.00 | 0.04 | 0.00 | 65 | 1014.9 |
| 20260904080009 | 62 | 353 | 0.0 | 0.0 | 0.00 | 0.04 | 0.00 | 65 | 1014.8 |
| 20260904075010 | 62 | 353 | 0.0 | 0.0 | 0.00 | 0.04 | 0.00 | 64 | 1014.8 |
| 20260904074010 | 62 | 353 | 0.0 | 0.0 | 0.00 | 0.04 | 0.00 | 64 | 1014.8 |
| 20260904072010 | 62 | 353 | 0.0 | 0.0 | 0.00 | 0.04 | 0.00 | 67 | 1014.8 |
| 20260904070010 | 63 | 353 | 0.0 | 0.0 | 0.00 | 0.04 | 0.00 | 70 | 1015.0 |
| 20260904065009 | 63 | 353 | 0.0 | 0.0 | 0.00 | 0.04 | 0.04 | 69 | 1015.0 |
| 20260904064010 | 63 | 353 | 0.0 | 0.0 | 0.00 | 0.04 | 0.04 | 69 | 1015.1 |
| 20260904063009 | 63 | 353 | 0.0 | 0.0 | 0.00 | 0.04 | 0.04 | 69 | 1015.1 |
| 20260904062013 | 64 | 353 | 0.0 | 0.0 | 0.00 | 0.04 | 0.04 | 69 | 1015.1 |
| 20260904061010 | 64 | 353 | 0.0 | 0.0 | 0.00 | 0.04 | 0.04 | 69 | 1015.1 |
| 20260904060010 | 64 | 353 | 0.0 | 0.0 | 0.00 | 0.04 | 0.04 | 69 | 1015.3 |
| 20260904055009 | 64 | 353 | 0.0 | 0.0 | 0.00 | 0.04 | 0.04 | 69 | 1015.3 |
| 20260904054009 | 64 | 353 | 0.0 | 0.0 | 0.00 | 0.04 | 0.04 | 66 | 1015.5 |
| 20260904053010 | 64 | 353 | 0.0 | 0.0 | 0.00 | 0.04 | 0.04 | 64 | 1015.5 |
| 20260904052010 | 65 | 353 | 0.0 | 0.0 | 0.00 | 0.04 | 0.04 | 63 | 1015.5 |
| 20260904051010 | 65 | 353 | 0.0 | 0.0 | 0.00 | 0.04 | 0.04 | 62 | 1015.6 |
| 20260904045009 | 65 | 353 | 0.0 | 0.0 | 0.00 | 0.04 | 0.04 | 60 | 1015.7 |
| 20260904044010 | 66 | 353 | 0.0 | 0.0 | 0.00 | 0.04 | 0.04 | 60 | 1015.6 |
| 20260904043010 | 66 | 353 | 0.0 | 0.0 | 0.00 | 0.04 | 0.04 | 58 | 1015.7 |
| 20260904041009 | 67 | 353 | 0.0 | 0.0 | 0.00 | 0.04 | 0.04 | 55 | 1015.6 |
| 20260904035010 | 68 | 353 | 0.0 | 0.0 | 0.00 | 0.04 | 0.04 | 53 | 1015.5 |
| 20260904034010 | 68 | 353 | 0.0 | 0.0 | 0.00 | 0.04 | 0.04 | 51 | 1015.3 |
| 20260904033009 | 68 | 353 | 0.0 | 5.2 | 0.00 | 0.04 | 0.04 | 49 | 1015.3 |
| 20260904032009 | 69 | 349 | 0.9 | 4.3 | 0.00 | 0.04 | 0.04 | 46 | 1015.2 |
| 20260904031010 | 70 | 260 | 0.0 | 0.0 | 0.00 | 0.04 | 0.04 | 41 | 1015.2 |
| 20260904030010 | 70 | 260 | 0.0 | 0.0 | 0.00 | 0.04 | 0.04 | 38 | 1015.2 |
| 20260904025009 | 71 | 260 | 0.0 | 0.0 | 0.00 | 0.04 | 0.04 | 37 | 1015.2 |
| 20260904024010 | 71 | 260 | 0.0 | 0.0 | 0.00 | 0.04 | 0.04 | 36 | 1015.2 |
| 20260904023009 | 72 | 260 | 0.0 | 0.0 | 0.00 | 0.04 | 0.04 | 35 | 1015.3 |
| 20260904022009 | 72 | 260 | 0.0 | 0.0 | 0.00 | 0.04 | 0.04 | 34 | 1015.3 |
| 20260904021009 | 72 | 260 | 0.0 | 0.0 | 0.00 | 0.04 | 0.04 | 34 | 1015.5 |
| 20260904020009 | 73 | 260 | 0.0 | 0.0 | 0.00 | 0.04 | 0.04 | 33 | 1015.6 |
| 20260904014009 | 73 | 260 | 0.0 | 0.0 | 0.00 | 0.04 | 0.04 | 32 | 1015.6 |
| 20260904013009 | 74 | 260 | 0.0 | 0.0 | 0.00 | 0.04 | 0.04 | 31 | 1015.7 |
| 20260904012009 | 74 | 260 | 0.0 | 0.0 | 0.00 | 0.04 | 0.04 | 31 | 1015.7 |
| 20260904010009 | 75 | 8 | 0.0 | 6.1 | 0.00 | 0.04 | 0.04 | 32 | 1015.7 |
| 20260904005010 | 76 | 283 | 0.9 | 6.1 | 0.00 | 0.04 | 0.04 | 31 | 1015.8 |
| 20260904004009 | 76 | 330 | 0.9 | 5.2 | 0.00 | 0.04 | 0.04 | 29 | 1015.8 |
| 20260904003010 | 76 | 241 | 2.6 | 8.7 | 0.00 | 0.04 | 0.04 | 30 | 1015.8 |
| 20260904002009 | 75 | 189 | 0.9 | 7.0 | 0.00 | 0.04 | 0.04 | 35 | 1015.8 |
| 20260904001009 | 76 | 0 | 0.0 | 4.3 | 0.00 | 0.04 | 0.04 | 33 | 1015.9 |
| 20260904000009 | 76 | 179 | 1.7 | 7.0 | 0.00 | 0.04 | 0.04 | 34 | 1015.9 |
| 20260903235009 | 76 | 71 | 0.0 | 6.1 | 0.00 | 0.04 | 0.04 | 33 | 1016.0 |
| 20260903234009 | 76 | 1 | 0.9 | 7.0 | 0.00 | 0.04 | 0.04 | 35 | 1016.1 |
| 20260903233009 | 77 | 333 | 0.0 | 4.3 | 0.00 | 0.04 | 0.04 | 34 | 1016.3 |
| 20260903232009 | 77 | 322 | 1.7 | 7.8 | 0.00 | 0.04 | 0.04 | 35 | 1016.3 |
| 20260903231009 | 76 | 325 | 1.7 | 7.8 | 0.00 | 0.04 | 0.04 | 36 | 1016.3 |
| 20260903230009 | 76 | 62 | 0.0 | 8.7 | 0.00 | 0.04 | 0.04 | 38 | 1016.4 |
| 20260903225010 | 75 | 174 | 0.9 | 10.4 | 0.00 | 0.04 | 0.04 | 38 | 1016.7 |
| 20260903224011 | 75 | 26 | 2.6 | 10.4 | 0.00 | 0.04 | 0.04 | 38 | 1016.7 |
| 20260903223009 | 75 | 315 | 0.9 | 11.3 | 0.00 | 0.04 | 0.04 | 39 | 1016.8 |
| 20260903222011 | 75 | 126 | 2.6 | 7.8 | 0.00 | 0.04 | 0.04 | 38 | 1016.9 |
| 20260903221010 | 76 | 287 | 0.9 | 8.7 | 0.00 | 0.04 | 0.04 | 39 | 1016.9 |
| 20260903220009 | 76 | 289 | 2.6 | 7.0 | 0.00 | 0.04 | 0.04 | 38 | 1017.0 |
| 20260903215010 | 76 | 16 | 1.7 | 6.1 | 0.00 | 0.04 | 0.04 | 38 | 1017.0 |
| 20260903214010 | 75 | 271 | 2.6 | 10.4 | 0.00 | 0.04 | 0.04 | 39 | 1017.0 |
| 20260903213009 | 75 | 209 | 1.7 | 8.7 | 0.00 | 0.04 | 0.04 | 39 | 1017.1 |
| 20260903212010 | 75 | 356 | 1.7 | 10.4 | 0.00 | 0.04 | 0.04 | 39 | 1017.0 |
| 20260903211010 | 76 | 186 | 0.9 | 6.1 | 0.00 | 0.04 | 0.04 | 37 | 1017.1 |
| 20260903210009 | 77 | 255 | 2.6 | 6.1 | 0.00 | 0.04 | 0.04 | 36 | 1017.2 |
| 20260903205012 | 77 | 326 | 0.9 | 7.8 | 0.00 | 0.04 | 0.04 | 35 | 1017.0 |
| 20260903203010 | 79 | 290 | 0.9 | 7.8 | 0.00 | 0.04 | 0.04 | 33 | 1017.1 |
| 20260903202011 | 78 | 101 | 0.9 | 6.1 | 0.00 | 0.04 | 0.04 | 33 | 1017.0 |
| 20260903201009 | 78 | 308 | 1.7 | 7.8 | 0.00 | 0.04 | 0.04 | 34 | 1017.1 |
| 20260903200010 | 77 | 143 | 0.9 | 7.8 | 0.00 | 0.04 | 0.04 | 33 | 1017.1 |
| 20260903195010 | 77 | 183 | 0.9 | 7.0 | 0.00 | 0.04 | 0.04 | 35 | 1017.1 |
| 20260903194010 | 77 | 304 | 0.9 | 5.2 | 0.00 | 0.04 | 0.04 | 34 | 1017.2 |
| 20260903192010 | 76 | 187 | 1.7 | 10.4 | 0.00 | 0.04 | 0.04 | 35 | 1017.4 |